SPACEBEE-40 (47449 NORAD) Tracking and Keplerian Element Data

This shows tracking and keplerian element data for the satellite.

Feedback or suggestion? Click here.




ElementValue
Catalog47449
NameSPACEBEE-40
Epoch Orbit1257
Epoch Day105.75506061
Epoch Year2021
RAAN168.0591
Inclination97.4914
Eccentricity0.0010473
Argument of Perigee325.3914
Mean Anonmoly34.6634
Mean Motion15.13150011
Decay Rate2.941E-05
L11 47449U 21006AN 21105.75506061 .00002941 00000-0 16939-3 0 9993
L22 47449 97.4914 168.0591 0010473 325.3914 34.6634 15.13150011 12575

Live tracking and technical data element details for SPACEBEE-40 (NORAD 47449). SPACEBEE-40 can be tracked NOW for your location showing map with azimuth and elevation plus other details from your city location.

Track the satellite on the map from your city or location and see movement details for azimuth, elevation, latitude, longitude, range, height, and movement on the map or in text.







IsCatalogInMostPopularTable: catalog: 47449, numindb: 14
Update: records affected: 1



GetName: 47449 SPACEBEE-40

Hit Count: updated at: Fri, 16 Apr 2021 11:21:37 GMT